Regional Weather Roundup
Issued by NWS

Home | Current Version | Previous Version | Text Only | Print | Product List | Glossary Off
Versions: 1 2 3 4 5 6 7 8 9 10 11 12 13 14 15 16 17 18 19 20 21 22 23 24 25 26 27 28 29 30 31 32 33 34 35 36 37 38 39 40 41 42 43 44 45 46 47 48 49 50

000
ASUS43 KLSX 071710
RWRMO

WEATHER SUMMARY FOR MISSOURI
NATIONAL WEATHER SERVICE SPRINGFIELD MO
1100 AM CST WED DEC 07 2016

NOTE: "FAIR" INDICATES FEW OR NO CLOUDS BELOW 12,000 FEET WITH NO
       SIGNIFICANT WEATHER AND/OR OBSTRUCTIONS TO VISIBILITY.
       CURRENT SKY AND/OR WEATHER CONDITIONS ARE NOT AVAILABLE FOR
       CHILLICOTHE AND FARMINGTON.

MOZ001>031-035>038-043-044-053-054-071800-
...NORTHERN AND WESTERN MISSOURI...

CITY           SKY/WX    TMP DP  RH WIND       PRES   REMARKS
KANSAS CTY INT LGT SNOW  25  19  78 N9        30.32R WCI  15
KANSAS C DTWN  LGT SNOW  28  20  71 N6        30.34R WCI  22
LEE`S SUMMIT   LGT SNOW  28  17  63 MISG      30.31R
ST JOSEPH      CLOUDY    26  12  55 N12       30.34R WCI  16
CHILLICOTHE      N/A     28  14  55 NW9       30.30R WCI  19
KIRKSVILLE     MOSUNNY   29  14  53 NW8       30.25R WCI  21

$$
MOZ066>068-077>081-088>096-101>105-071800-
...SOUTHWEST MISSOURI...

CITY           SKY/WX    TMP DP  RH WIND       PRES   REMARKS
SPRINGFIELD    CLOUDY    37  14  38 E8        30.22S
JOPLIN         CLOUDY    35  17  47 NE6       30.25S
BRANSON        CLOUDY    32  18  55 E7        30.23R WCI  26

$$
MOZ032>034-039>042-045>050-055>058-069>072-071800-
...CENTRAL MISSOURI...

CITY           SKY/WX    TMP DP  RH WIND       PRES   REMARKS
COLUMBIA       CLOUDY    34  15  46 N6        30.25S WCI  29
JEFFERSON CITY PTSUNNY   36  16  44 W5        30.27S
ROLLA          CLOUDY    34  18  52 CALM      30.21F
SEDALIA        CLOUDY    34  14  43 NW5       30.29R WCI  30
WHITEMAN AFB   CLOUDY    33  13  44 N6        30.28R WCI  27
WARRENSBURG    CLOUDY    32  14  47 NW8       30.30R WCI  25
OSAGE BEACH    CLOUDY    34  14  43 VRB3      30.26S

$$
MOZ051-052-059>065-071800-
...EAST CENTRAL MISSOURI...

CITY           SKY/WX    TMP DP  RH WIND       PRES   REMARKS
ST LOUIS INTL  CLOUDY    37  15  40 NW6       30.24S
SPIRIT OF STL  CLOUDY    35  17  47 NW6       30.25S
ST CHARLES     CLOUDY    34  17  50 W6        30.25S WCI  29

$$
MOZ072>076-082>087-097>100-106>115-071800-
...SOUTH CENTRAL AND SOUTHEAST MISSOURI...

CITY           SKY/WX    TMP DP  RH WIND       PRES   REMARKS
CAPE GIRARDEAU SUNNY     40  18  41 NE8       30.24S
FARMINGTON     CLOUDY    36  15  42 VRB5      30.22S
POPLAR BLUFF   CLOUDY    39  21  48 VRB7      30.25R
WEST PLAINS    CLOUDY    35  18  49 NE8       30.21F WCI  29

$$



USA.gov is the U.S. government's official web portal to all federal, state and local government web resources and services.